Time,TemperatureF,DewpointF,PressureIn,WindDirection,WindDirectionDegrees,WindSpeedMPH,WindSpeedGustMPH,Humidity,HourlyPrecipIn,Conditions,Clouds,dailyrainin,SoftwareType,DateUTC
2013-01-21 00:05:00,38.3,15.5,30.06,East,81,0.0,0.0,39,0.00,CLR,OVC,0.00,WeatherDisplay:10.37,2013-01-21 05:05:00,
2013-01-21 00:10:00,38.0,15.8,30.06,East,81,0.0,0.0,40,0.00,CLR,OVC,0.00,WeatherDisplay:10.37,2013-01-21 05:10:00,
2013-01-21 00:15:00,37.8,15.6,30.06,East,81,0.0,0.0,40,0.00,CLR,OVC,0.00,WeatherDisplay:10.37,2013-01-21 05:15:00,
2013-01-21 00:20:00,37.6,15.4,30.06,East,81,0.0,0.0,40,0.00,CLR,OVC,0.00,WeatherDisplay:10.37,2013-01-21 05:20:00,
2013-01-21 00:25:00,37.2,15.1,30.06,East,81,0.0,0.0,40,0.00,CLR,OVC,0.00,WeatherDisplay:10.37,2013-01-21 05:25:00,
2013-01-21 00:30:00,37.0,16.0,30.06,East,81,0.0,0.0,42,0.00,CLR,OVC,0.00,WeatherDisplay:10.37,2013-01-21 05:30:00,
2013-01-21 00:35:00,36.9,15.9,30.06,East,81,0.0,0.0,42,0.00,CLR,OVC,0.00,WeatherDisplay:10.37,2013-01-21 05:35:00,
2013-01-21 00:40:00,36.7,15.7,30.06,East,81,0.0,0.0,42,0.00,CLR,OVC,0.00,WeatherDisplay:10.37,2013-01-21 05:40:00,
2013-01-21 00:45:00,36.6,15.7,30.06,East,81,0.0,0.0,42,0.00,CLR,OVC,0.00,WeatherDisplay:10.37,2013-01-21 05:45:00,
2013-01-21 00:50:00,36.2,15.8,30.06,East,81,0.0,0.0,43,0.00,CLR,OVC,0.00,WeatherDisplay:10.37,2013-01-21 05:50:00,
2013-01-21 00:55:00,36.0,15.6,30.06,East,81,0.0,0.0,43,0.00,CLR,OVC,0.00,WeatherDisplay:10.37,2013-01-21 05:55:00,
2013-01-21 01:00:00,35.8,16.0,30.06,East,81,0.0,0.0,44,0.00,CLR,OVC,0.00,WeatherDisplay:10.37,2013-01-21 06:00:00,
2013-01-21 01:10:00,35.6,15.8,30.06,East,81,0.0,0.0,44,0.00,CLR,OVC,0.00,WeatherDisplay:10.37,2013-01-21 06:10:00,
2013-01-21 01:15:00,35.4,16.2,30.06,East,81,0.0,0.0,45,0.00,CLR,OVC,0.00,WeatherDisplay:10.37,2013-01-21 06:15:00,
2013-01-21 01:25:00,35.1,15.8,30.06,East,81,0.0,0.0,45,0.00,CLR,OVC,0.00,WeatherDisplay:10.37,2013-01-21 06:25:00,
2013-01-21 01:30:00,35.1,15.8,30.06,East,81,0.0,0.0,45,0.00,CLR,OVC,0.00,WeatherDisplay:10.37,2013-01-21 06:30:00,
2013-01-21 01:40:00,34.7,16.0,30.06,East,81,0.0,0.0,46,0.00,CLR,OVC,0.00,WeatherDisplay:10.37,2013-01-21 06:40:00,
2013-01-21 01:45:00,34.7,16.0,30.06,East,81,0.0,0.0,46,0.00,CLR,OVC,0.00,WeatherDisplay:10.37,2013-01-21 06:45:00,
2013-01-21 01:50:00,34.5,15.8,30.06,East,81,0.0,0.0,46,0.00,CLR,OVC,0.00,WeatherDisplay:10.37,2013-01-21 06:50:00,
2013-01-21 01:55:00,34.3,16.7,30.06,East,81,0.0,0.0,48,0.00,CLR,OVC,0.00,WeatherDisplay:10.37,2013-01-21 06:55:00,
2013-01-21 02:00:00,34.3,16.7,30.06,East,81,0.0,0.0,48,0.00,CLR,OVC,0.00,WeatherDisplay:10.37,2013-01-21 07:00:00,
2013-01-21 02:05:00,34.2,17.0,30.06,East,81,0.0,0.0,49,0.00,CLR,OVC,0.00,WeatherDisplay:10.37,2013-01-21 07:05:00,
2013-01-21 02:10:00,34.0,16.8,30.06,East,81,0.0,0.0,49,0.00,CLR,OVC,0.00,WeatherDisplay:10.37,2013-01-21 07:10:00,
2013-01-21 02:15:00,34.0,16.8,30.06,East,81,0.0,0.0,49,0.00,CLR,OVC,0.00,WeatherDisplay:10.37,2013-01-21 07:15:00,
2013-01-21 02:20:00,33.8,17.1,30.06,East,81,0.0,0.0,50,0.00,CLR,OVC,0.00,WeatherDisplay:10.37,2013-01-21 07:20:00,
2013-01-21 02:25:00,33.8,17.1,30.06,East,81,0.0,0.0,50,0.00,CLR,OVC,0.00,WeatherDisplay:10.37,2013-01-21 07:25:00,
2013-01-21 02:30:00,33.6,17.4,30.06,East,81,0.0,0.0,51,0.00,CLR,OVC,0.00,WeatherDisplay:10.37,2013-01-21 07:30:00,
2013-01-21 02:35:00,33.4,17.2,30.06,East,81,0.0,0.0,51,0.00,CLR,OVC,0.00,WeatherDisplay:10.37,2013-01-21 07:35:00,
2013-01-21 02:40:00,33.4,17.2,30.06,East,81,0.0,0.0,51,0.00,CLR,OVC,0.00,WeatherDisplay:10.37,2013-01-21 07:40:00,
2013-01-21 02:50:00,33.4,17.2,30.06,East,81,0.0,0.0,51,0.00,CLR,OVC,0.00,WeatherDisplay:10.37,2013-01-21 07:50:00,
2013-01-21 02:55:00,33.4,17.2,30.06,East,81,0.0,0.0,51,0.00,CLR,OVC,0.00,WeatherDisplay:10.37,2013-01-21 07:55:00,
2013-01-21 03:00:00,32.9,17.2,30.06,East,81,0.0,0.0,52,0.00,CLR,OVC,0.00,WeatherDisplay:10.37,2013-01-21 08:00:00,
2013-01-21 03:05:00,32.9,17.2,30.06,East,81,0.0,0.0,52,0.00,CLR,OVC,0.00,WeatherDisplay:10.37,2013-01-21 08:05:00,
2013-01-21 03:10:00,32.9,17.2,30.06,East,81,0.0,0.0,52,0.00,CLR,OVC,0.00,WeatherDisplay:10.37,2013-01-21 08:10:00,
2013-01-21 03:15:00,32.9,17.2,30.06,East,81,0.0,0.0,52,0.00,CLR,OVC,0.00,WeatherDisplay:10.37,2013-01-21 08:15:00,
2013-01-21 03:20:00,32.9,17.2,30.06,East,81,0.0,0.0,52,0.00,CLR,OVC,0.00,WeatherDisplay:10.37,2013-01-21 08:20:00,
2013-01-21 03:25:00,32.9,17.2,30.06,East,81,0.0,0.0,52,0.00,CLR,OVC,0.00,WeatherDisplay:10.37,2013-01-21 08:25:00,
2013-01-21 03:30:00,32.9,17.2,30.06,East,81,0.0,0.0,52,0.00,CLR,OVC,0.00,WeatherDisplay:10.37,2013-01-21 08:30:00,
2013-01-21 03:35:00,32.2,16.9,30.06,East,81,0.0,0.0,53,0.00,CLR,OVC,0.00,WeatherDisplay:10.37,2013-01-21 08:35:00,
2013-01-21 03:40:00,32.2,16.9,30.06,East,81,0.0,0.0,53,0.00,CLR,OVC,0.00,WeatherDisplay:10.37,2013-01-21 08:40:00,
2013-01-21 03:45:00,32.0,17.2,30.06,East,81,0.0,0.0,54,0.00,CLR,OVC,0.00,WeatherDisplay:10.37,2013-01-21 08:45:00,
2013-01-21 03:50:00,32.0,17.2,30.03,East,81,0.0,0.0,54,0.00,CLR,OVC,0.00,WeatherDisplay:10.37,2013-01-21 08:50:00,
2013-01-21 04:00:00,31.6,16.9,30.03,East,81,0.0,0.0,54,0.00,CLR,OVC,0.00,WeatherDisplay:10.37,2013-01-21 09:00:00,
2013-01-21 04:05:00,31.6,16.9,30.03,East,81,0.0,0.0,54,0.00,CLR,OVC,0.00,WeatherDisplay:10.37,2013-01-21 09:05:00,
2013-01-21 04:10:00,31.5,16.7,30.03,East,81,0.0,0.0,54,0.00,CLR,OVC,0.00,WeatherDisplay:10.37,2013-01-21 09:10:00,
2013-01-21 04:15:00,31.5,16.7,30.03,East,81,0.0,0.0,54,0.00,CLR,OVC,0.00,WeatherDisplay:10.37,2013-01-21 09:15:00,
2013-01-21 04:20:00,31.3,16.5,30.06,East,81,0.0,0.0,54,0.00,CLR,OVC,0.00,WeatherDisplay:10.37,2013-01-21 09:20:00,
2013-01-21 04:25:00,31.3,17.0,30.06,East,81,0.0,0.0,55,0.00,CLR,OVC,0.00,WeatherDisplay:10.37,2013-01-21 09:25:00,
2013-01-21 04:30:00,31.1,16.8,30.06,East,81,0.0,0.0,55,0.00,CLR,OVC,0.00,WeatherDisplay:10.37,2013-01-21 09:30:00,
2013-01-21 04:35:00,31.1,16.8,30.06,East,81,0.0,0.0,55,0.00,CLR,OVC,0.00,WeatherDisplay:10.37,2013-01-21 09:35:00,
2013-01-21 04:40:00,31.1,16.8,30.06,East,81,0.0,0.0,55,0.00,CLR,OVC,0.00,WeatherDisplay:10.37,2013-01-21 09:40:00,
2013-01-21 04:45:00,30.9,16.6,30.06,East,81,0.0,0.0,55,0.00,CLR,OVC,0.00,WeatherDisplay:10.37,2013-01-21 09:45:00,
2013-01-21 04:50:00,30.9,16.6,30.03,East,81,0.0,0.0,55,0.00,CLR,OVC,0.00,WeatherDisplay:10.37,2013-01-21 09:50:00,
2013-01-21 04:55:00,30.7,16.9,30.03,East,81,0.0,0.0,56,0.00,CLR,OVC,0.00,WeatherDisplay:10.37,2013-01-21 09:55:00,
2013-01-21 05:00:00,30.7,16.9,30.03,East,81,0.0,0.0,56,0.00,CLR,OVC,0.00,WeatherDisplay:10.37,2013-01-21 10:00:00,
2013-01-21 05:05:00,30.6,16.7,30.03,East,81,0.0,0.0,56,0.00,CLR,OVC,0.00,WeatherDisplay:10.37,2013-01-21 10:05:00,
2013-01-21 05:10:00,30.6,16.7,30.03,East,81,0.0,0.0,56,0.00,CLR,OVC,0.00,WeatherDisplay:10.37,2013-01-21 10:10:00,
2013-01-21 05:20:00,30.4,16.5,30.03,East,81,0.0,0.0,56,0.00,CLR,OVC,0.00,WeatherDisplay:10.37,2013-01-21 10:20:00,
2013-01-21 05:25:00,30.2,16.8,30.03,East,81,0.0,0.0,57,0.00,CLR,OVC,0.00,WeatherDisplay:10.37,2013-01-21 10:25:00,
2013-01-21 05:30:00,30.2,16.8,30.03,East,81,0.0,0.0,57,0.00,CLR,OVC,0.00,WeatherDisplay:10.37,2013-01-21 10:30:00,
2013-01-21 05:35:00,30.0,16.6,30.03,East,81,0.0,0.0,57,0.00,CLR,OVC,0.00,WeatherDisplay:10.37,2013-01-21 10:35:00,
2013-01-21 05:40:00,30.0,16.6,30.03,East,81,0.0,0.0,57,0.00,CLR,OVC,0.00,WeatherDisplay:10.37,2013-01-21 10:40:00,
2013-01-21 05:45:00,30.0,16.6,30.03,East,81,0.0,0.0,57,0.00,CLR,OVC,0.00,WeatherDisplay:10.37,2013-01-21 10:45:00,
2013-01-21 05:50:00,29.8,16.4,30.03,East,81,0.0,0.0,57,0.00,CLR,OVC,0.00,WeatherDisplay:10.37,2013-01-21 10:50:00,
2013-01-21 05:55:00,29.8,16.8,30.03,East,81,0.0,0.0,58,0.00,CLR,OVC,0.00,WeatherDisplay:10.37,2013-01-21 10:55:00,
2013-01-21 06:00:00,29.7,16.7,30.03,East,81,0.0,0.0,58,0.00,CLR,OVC,0.00,WeatherDisplay:10.37,2013-01-21 11:00:00,
2013-01-21 06:05:00,29.7,16.7,30.03,East,81,0.0,0.0,58,0.00,CLR,OVC,0.00,WeatherDisplay:10.37,2013-01-21 11:05:00,
2013-01-21 06:15:00,29.5,16.5,30.03,East,81,0.0,0.0,58,0.00,CLR,OVC,0.00,WeatherDisplay:10.37,2013-01-21 11:15:00,
2013-01-21 06:20:00,29.5,16.5,30.03,East,81,0.0,0.0,58,0.00,CLR,OVC,0.00,WeatherDisplay:10.37,2013-01-21 11:20:00,
2013-01-21 06:30:00,29.3,16.7,30.03,East,81,0.0,0.0,59,0.00,CLR,OVC,0.00,WeatherDisplay:10.37,2013-01-21 11:30:00,
2013-01-21 06:35:00,29.3,16.7,30.03,East,81,0.0,0.0,59,0.00,CLR,OVC,0.00,WeatherDisplay:10.37,2013-01-21 11:35:00,
2013-01-21 06:40:00,29.3,16.7,30.03,East,81,0.0,0.0,59,0.00,CLR,OVC,0.00,WeatherDisplay:10.37,2013-01-21 11:40:00,
2013-01-21 06:50:00,29.3,16.7,30.03,East,81,0.0,0.0,59,0.00,CLR,OVC,0.00,WeatherDisplay:10.37,2013-01-21 11:50:00,
2013-01-21 07:00:00,29.3,17.1,30.03,East,81,0.0,0.0,60,0.00,CLR,OVC,0.00,WeatherDisplay:10.37,2013-01-21 12:00:00,
2013-01-21 07:05:00,29.1,17.0,30.06,East,81,0.0,0.0,60,0.00,CLR,OVC,0.00,WeatherDisplay:10.37,2013-01-21 12:05:00,
2013-01-21 07:10:00,29.1,17.0,30.06,East,81,0.0,0.0,60,0.00,CLR,OVC,0.00,WeatherDisplay:10.37,2013-01-21 12:10:00,
2013-01-21 07:15:00,29.1,17.0,30.06,East,81,0.0,0.0,60,0.00,CLR,OVC,0.00,WeatherDisplay:10.37,2013-01-21 12:15:00,
2013-01-21 07:20:00,29.1,17.3,30.06,East,81,0.0,0.0,61,0.00,CLR,OVC,0.00,WeatherDisplay:10.37,2013-01-21 12:20:00,
2013-01-21 07:25:00,29.1,17.3,30.06,East,81,0.0,0.0,61,0.00,CLR,OVC,0.00,WeatherDisplay:10.37,2013-01-21 12:25:00,
2013-01-21 07:30:00,29.1,17.3,30.06,East,81,0.0,0.0,61,0.00,CLR,OVC,0.00,WeatherDisplay:10.37,2013-01-21 12:30:00,
2013-01-21 07:40:00,29.1,17.3,30.03,East,81,0.0,0.0,61,0.00,CLR,OVC,0.00,WeatherDisplay:10.37,2013-01-21 12:40:00,
2013-01-21 07:45:00,29.1,17.3,30.03,East,81,0.0,0.0,61,0.00,CLR,OVC,0.00,WeatherDisplay:10.37,2013-01-21 12:45:00,
2013-01-21 07:50:00,29.1,17.7,30.06,East,81,0.0,0.0,62,0.00,CLR,OVC,0.00,WeatherDisplay:10.37,2013-01-21 12:50:00,
2013-01-21 07:55:00,29.1,17.7,30.06,East,81,0.0,0.0,62,0.00,CLR,OVC,0.00,WeatherDisplay:10.37,2013-01-21 12:55:00,
2013-01-21 08:00:00,29.1,17.7,30.06,East,81,0.0,0.0,62,0.00,CLR,OVC,0.00,WeatherDisplay:10.37,2013-01-21 13:00:00,
2013-01-21 08:05:00,29.1,17.7,30.06,East,81,0.0,0.0,62,0.00,CLR,OVC,0.00,WeatherDisplay:10.37,2013-01-21 13:05:00,
2013-01-21 08:10:00,29.2,17.8,30.06,East,81,0.0,0.0,62,0.00,CLR,OVC,0.00,WeatherDisplay:10.37,2013-01-21 13:10:00,
2013-01-21 08:15:00,29.3,17.9,30.06,East,81,0.0,0.0,62,0.00,CLR,OVC,0.00,WeatherDisplay:10.37,2013-01-21 13:15:00,
2013-01-21 08:20:00,29.5,18.1,30.06,East,81,0.0,0.0,62,0.00,CLR,OVC,0.00,WeatherDisplay:10.37,2013-01-21 13:20:00,
2013-01-21 08:25:00,29.5,18.4,30.06,East,81,0.0,0.0,63,0.00,CLR,OVC,0.00,WeatherDisplay:10.37,2013-01-21 13:25:00,
2013-01-21 08:30:00,29.7,18.6,30.06,East,81,0.0,0.0,63,0.00,CLR,OVC,0.00,WeatherDisplay:10.37,2013-01-21 13:30:00,
2013-01-21 08:35:00,29.8,18.8,30.06,East,81,0.0,0.0,63,0.00,CLR,OVC,0.00,WeatherDisplay:10.37,2013-01-21 13:35:00,
2013-01-21 08:40:00,30.0,18.9,30.06,East,81,0.0,0.0,63,0.00,CLR,OVC,0.00,WeatherDisplay:10.37,2013-01-21 13:40:00,
2013-01-21 08:45:00,30.2,19.5,30.06,East,81,0.0,0.0,64,0.00,CLR,OVC,0.00,WeatherDisplay:10.37,2013-01-21 13:45:00,
2013-01-21 08:50:00,30.2,19.5,30.06,East,81,0.0,0.0,64,0.00,CLR,OVC,0.00,WeatherDisplay:10.37,2013-01-21 13:50:00,
2013-01-21 09:00:00,30.2,19.5,30.06,East,81,0.0,0.0,64,0.00,CLR,OVC,0.00,WeatherDisplay:10.37,2013-01-21 14:00:00,
2013-01-21 09:05:00,30.2,19.5,30.06,East,81,0.0,0.0,64,0.00,CLR,OVC,0.00,WeatherDisplay:10.37,2013-01-21 14:05:00,
2013-01-21 09:10:00,30.2,19.5,30.06,East,81,0.0,0.0,64,0.00,CLR,OVC,0.00,WeatherDisplay:10.37,2013-01-21 14:10:00,
2013-01-21 09:15:00,33.2,23.1,30.06,East,81,0.0,0.0,66,0.00,CLR,OVC,0.00,WeatherDisplay:10.37,2013-01-21 14:15:00,
2013-01-21 09:20:00,34.2,24.4,30.06,East,81,0.0,0.0,67,0.00,CLR,OVC,0.00,WeatherDisplay:10.37,2013-01-21 14:20:00,
2013-01-21 09:30:00,35.1,25.6,30.06,East,81,0.0,0.0,68,0.00,CLR,OVC,0.00,WeatherDisplay:10.37,2013-01-21 14:30:00,
2013-01-21 09:35:00,35.1,25.6,30.06,East,92,0.0,0.0,68,0.00,CLR,OVC,0.00,WeatherDisplay:10.37,2013-01-21 14:35:00,
2013-01-21 09:45:00,39.1,29.8,30.06,South,184,0.0,0.0,69,0.00,CLR,OVC,0.00,WeatherDisplay:10.37,2013-01-21 14:45:00,
2013-01-21 09:50:00,41.5,32.1,30.06,SSW,199,0.0,0.0,69,0.00,CLR,OVC,0.00,WeatherDisplay:10.37,2013-01-21 14:50:00,
2013-01-21 09:55:00,44.1,32.3,30.06,South,181,0.0,0.0,63,0.00,CLR,OVC,0.00,WeatherDisplay:10.37,2013-01-21 14:55:00,
2013-01-21 10:00:00,46.2,32.6,30.06,SSE,165,0.0,0.0,59,0.00,CLR,OVC,0.00,WeatherDisplay:10.37,2013-01-21 15:00:00,
2013-01-21 10:05:00,46.6,31.8,30.06,SSE,160,2.0,5.0,56,0.00,CLR,OVC,0.00,WeatherDisplay:10.37,2013-01-21 15:05:00,
2013-01-21 10:10:00,47.5,30.7,30.06,SSE,168,0.0,5.0,52,0.00,CLR,OVC,0.00,WeatherDisplay:10.37,2013-01-21 15:10:00,
2013-01-21 10:15:00,49.8,31.4,30.06,SSE,149,3.0,6.0,49,0.00,CLR,OVC,0.00,WeatherDisplay:10.37,2013-01-21 15:15:00,
2013-01-21 10:20:00,50.5,30.5,30.06,SE,135,1.0,5.0,46,0.00,CLR,OVC,0.00,WeatherDisplay:10.37,2013-01-21 15:20:00,
2013-01-21 10:25:00,51.3,28.9,30.06,SE,139,0.0,5.0,42,0.00,CLR,OVC,0.00,WeatherDisplay:10.37,2013-01-21 15:25:00,
2013-01-21 10:30:00,51.5,27.3,30.06,SSE,165,0.0,8.0,39,0.00,CLR,OVC,0.00,WeatherDisplay:10.37,2013-01-21 15:30:00,
2013-01-21 10:35:00,51.8,25.7,30.06,SSE,151,0.0,5.0,36,0.00,CLR,OVC,0.00,WeatherDisplay:10.37,2013-01-21 15:35:00,
2013-01-21 10:40:00,52.0,24.4,30.06,ESE,117,0.0,0.0,34,0.00,CLR,OVC,0.00,WeatherDisplay:10.37,2013-01-21 15:40:00,
2013-01-21 10:45:00,52.3,24.8,30.06,SE,139,0.0,0.0,34,0.00,CLR,OVC,0.00,WeatherDisplay:10.37,2013-01-21 15:45:00,
2013-01-21 10:50:00,52.7,23.6,30.03,ESE,114,0.0,0.0,32,0.00,CLR,OVC,0.00,WeatherDisplay:10.37,2013-01-21 15:50:00,
2013-01-21 10:55:00,53.2,23.3,30.03,ESE,121,0.0,0.0,31,0.00,CLR,OVC,0.00,WeatherDisplay:10.37,2013-01-21 15:55:00,
2013-01-21 11:00:00,53.6,22.9,30.03,SE,134,0.0,0.0,30,0.00,CLR,OVC,0.00,WeatherDisplay:10.37,2013-01-21 16:00:00,
2013-01-21 11:05:00,54.5,21.2,30.03,SSW,197,1.0,7.0,27,0.00,CLR,OVC,0.00,WeatherDisplay:10.37,2013-01-21 16:05:00,
2013-01-21 11:10:00,55.0,19.8,30.03,SSW,192,0.0,0.0,25,0.00,CLR,OVC,0.00,WeatherDisplay:10.37,2013-01-21 16:10:00,
2013-01-21 11:15:00,55.4,20.1,30.03,SSW,197,0.0,5.0,25,0.00,CLR,OVC,0.00,WeatherDisplay:10.37,2013-01-21 16:15:00,
2013-01-21 11:20:00,55.9,20.6,30.03,South,175,0.0,0.0,25,0.00,CLR,OVC,0.00,WeatherDisplay:10.37,2013-01-21 16:20:00,
2013-01-21 11:25:00,56.8,19.3,30.03,SSE,158,0.0,5.0,23,0.00,CLR,OVC,0.00,WeatherDisplay:10.37,2013-01-21 16:25:00,
2013-01-21 11:30:00,57.2,19.7,30.03,SSE,167,0.0,5.0,23,0.00,CLR,OVC,0.00,WeatherDisplay:10.37,2013-01-21 16:30:00,
2013-01-21 11:40:00,58.1,18.3,30.03,SE,128,0.0,6.0,21,0.00,CLR,OVC,0.00,WeatherDisplay:10.37,2013-01-21 16:40:00,
2013-01-21 11:45:00,58.4,18.6,30.03,SSE,151,0.0,0.0,21,0.00,CLR,OVC,0.00,WeatherDisplay:10.37,2013-01-21 16:45:00,
2013-01-21 11:50:00,58.8,18.9,30.00,East,98,0.0,0.0,21,0.00,CLR,OVC,0.00,WeatherDisplay:10.37,2013-01-21 16:50:00,
2013-01-21 11:55:00,58.8,17.8,30.00,South,169,0.0,0.0,20,0.00,CLR,OVC,0.00,WeatherDisplay:10.37,2013-01-21 16:55:00,
2013-01-21 12:00:00,59.0,17.9,30.00,South,181,0.0,0.0,20,0.00,CLR,OVC,0.00,WeatherDisplay:10.37,2013-01-21 17:00:00,
2013-01-21 12:05:00,59.1,18.0,30.00,SSW,199,0.0,0.0,20,0.00,CLR,OVC,0.00,WeatherDisplay:10.37,2013-01-21 17:05:00,
2013-01-21 12:10:00,59.4,18.2,30.00,SE,128,1.0,5.0,20,0.00,CLR,OVC,0.00,WeatherDisplay:10.37,2013-01-21 17:10:00,
2013-01-21 12:15:00,59.5,14.6,30.00,SSE,152,0.0,5.0,17,0.00,CLR,OVC,0.00,WeatherDisplay:10.37,2013-01-21 17:15:00,
2013-01-21 12:20:00,59.7,13.4,30.00,SSW,207,0.0,5.0,16,0.00,CLR,OVC,0.00,WeatherDisplay:10.37,2013-01-21 17:20:00,
2013-01-21 12:25:00,60.3,9.1,30.00,SW,232,0.0,6.0,13,0.00,CLR,OVC,0.00,WeatherDisplay:10.37,2013-01-21 17:25:00,
2013-01-21 12:30:00,60.4,9.3,30.00,SW,236,1.0,7.0,13,0.00,CLR,OVC,0.00,WeatherDisplay:10.37,2013-01-21 17:30:00,
2013-01-21 12:35:00,60.6,9.4,29.97,South,191,0.0,0.0,13,0.00,CLR,OVC,0.00,WeatherDisplay:10.37,2013-01-21 17:35:00,
2013-01-21 12:40:00,60.6,3.6,29.97,SW,218,0.0,5.0,10,0.00,CLR,OVC,0.00,WeatherDisplay:10.37,2013-01-21 17:40:00,
2013-01-21 12:45:00,60.6,1.4,29.97,SW,224,0.0,0.0,9,0.00,CLR,OVC,0.00,WeatherDisplay:10.37,2013-01-21 17:45:00,
2013-01-21 12:50:00,60.8,5.9,29.97,SW,232,0.0,5.0,11,0.00,CLR,OVC,0.00,WeatherDisplay:10.37,2013-01-21 17:50:00,
2013-01-21 12:55:00,61.0,1.6,29.97,SW,222,0.0,0.0,9,0.00,CLR,OVC,0.00,WeatherDisplay:10.37,2013-01-21 17:55:00,
2013-01-21 13:05:00,61.7,2.2,29.97,WNW,290,0.0,5.0,9,0.00,CLR,OVC,0.00,WeatherDisplay:10.37,2013-01-21 18:05:00,
2013-01-21 13:10:00,61.7,2.2,29.97,WSW,242,2.0,7.0,9,0.00,CLR,OVC,0.00,WeatherDisplay:10.37,2013-01-21 18:10:00,
2013-01-21 13:15:00,61.9,2.3,29.97,SSW,211,1.0,7.0,9,0.00,CLR,OVC,0.00,WeatherDisplay:10.37,2013-01-21 18:15:00,
2013-01-21 13:20:00,62.2,2.6,29.94,WSW,244,3.0,7.0,9,0.00,CLR,OVC,0.00,WeatherDisplay:10.37,2013-01-21 18:20:00,
2013-01-21 13:30:00,63.0,3.1,29.94,SW,236,0.0,4.0,9,0.00,CLR,OVC,0.00,WeatherDisplay:10.37,2013-01-21 18:30:00,
2013-01-21 13:35:00,62.8,3.0,29.94,WSW,258,3.0,8.0,9,0.00,CLR,OVC,0.00,WeatherDisplay:10.37,2013-01-21 18:35:00,
2013-01-21 13:40:00,62.6,2.9,29.94,West,269,0.0,7.0,9,0.00,CLR,OVC,0.00,WeatherDisplay:10.37,2013-01-21 18:40:00,
2013-01-21 13:50:00,62.2,-9.7,29.94,WSW,242,2.0,5.0,5,0.00,CLR,OVC,0.00,WeatherDisplay:10.37,2013-01-21 18:50:00,
2013-01-21 13:55:00,62.1,-14.3,29.94,West,281,5.0,7.0,4,0.00,CLR,OVC,0.00,WeatherDisplay:10.37,2013-01-21 18:55:00,
2013-01-21 14:00:00,62.1,-6.1,29.94,WNW,299,0.0,8.0,6,0.00,CLR,OVC,0.00,WeatherDisplay:10.37,2013-01-21 19:00:00,
2013-01-21 14:05:00,62.0,-14.4,29.92,WNW,303,2.0,6.0,4,0.00,CLR,OVC,0.00,WeatherDisplay:10.37,2013-01-21 19:05:00,
2013-01-21 14:10:00,61.9,-14.5,29.91,West,280,1.0,7.0,4,0.00,CLR,OVC,0.00,WeatherDisplay:10.37,2013-01-21 19:10:00,
2013-01-21 14:15:00,62.1,-14.3,29.91,WNW,289,2.0,6.0,4,0.00,CLR,OVC,0.00,WeatherDisplay:10.37,2013-01-21 19:15:00,
2013-01-21 14:20:00,62.2,-14.2,29.91,WNW,282,0.0,4.0,4,0.00,CLR,OVC,0.00,WeatherDisplay:10.37,2013-01-21 19:20:00,
2013-01-21 14:30:00,62.2,-14.2,29.91,West,280,0.0,7.0,4,0.00,CLR,OVC,0.00,WeatherDisplay:10.37,2013-01-21 19:30:00,
2013-01-21 14:35:00,62.1,-14.3,29.91,WNW,284,1.0,7.0,4,0.00,CLR,OVC,0.00,WeatherDisplay:10.37,2013-01-21 19:35:00,
2013-01-21 14:40:00,61.9,-14.5,29.91,West,271,3.0,6.0,4,0.00,CLR,OVC,0.00,WeatherDisplay:10.37,2013-01-21 19:40:00,
2013-01-21 14:45:00,61.5,-14.7,29.91,WSW,256,0.0,7.0,4,0.00,CLR,OVC,0.00,WeatherDisplay:10.37,2013-01-21 19:45:00,
2013-01-21 14:50:00,61.2,-6.8,29.91,West,271,3.0,7.0,6,0.00,CLR,OVC,0.00,WeatherDisplay:10.37,2013-01-21 19:50:00,
2013-01-21 14:55:00,61.1,-6.8,29.91,West,271,3.0,8.0,6,0.00,CLR,OVC,0.00,WeatherDisplay:10.37,2013-01-21 19:55:00,
2013-01-21 15:00:00,60.8,-7.0,29.91,West,260,0.0,5.0,6,0.00,CLR,OVC,0.00,WeatherDisplay:10.37,2013-01-21 20:00:00,
2013-01-21 15:05:00,60.4,-7.3,29.91,WSW,257,3.0,7.0,6,0.00,CLR,OVC,0.00,WeatherDisplay:10.37,2013-01-21 20:05:00,
2013-01-21 15:10:00,60.3,-7.4,29.91,WSW,250,0.0,0.0,6,0.00,CLR,OVC,0.00,WeatherDisplay:10.37,2013-01-21 20:10:00,
2013-01-21 15:15:00,60.1,-7.6,29.91,West,265,0.0,4.0,6,0.00,CLR,OVC,0.00,WeatherDisplay:10.37,2013-01-21 20:15:00,
2013-01-21 15:20:00,59.9,-7.7,29.91,West,259,1.0,5.0,6,0.00,CLR,OVC,0.00,WeatherDisplay:10.37,2013-01-21 20:20:00,
2013-01-21 15:25:00,59.9,-7.7,29.91,West,270,3.0,5.0,6,0.00,CLR,OVC,0.00,WeatherDisplay:10.37,2013-01-21 20:25:00,
2013-01-21 15:30:00,59.9,-7.7,29.91,West,268,0.0,7.0,6,0.00,CLR,OVC,0.00,WeatherDisplay:10.37,2013-01-21 20:30:00,
2013-01-21 15:35:00,60.0,-7.6,29.91,West,261,1.0,5.0,6,0.00,CLR,OVC,0.00,WeatherDisplay:10.37,2013-01-21 20:35:00,
2013-01-21 15:40:00,60.1,-7.6,29.91,West,261,2.0,8.0,6,0.00,CLR,OVC,0.00,WeatherDisplay:10.37,2013-01-21 20:40:00,
2013-01-21 15:45:00,59.9,-7.7,29.91,West,271,1.0,7.0,6,0.00,CLR,OVC,0.00,WeatherDisplay:10.37,2013-01-21 20:45:00,
2013-01-21 15:50:00,59.9,-7.7,29.91,West,279,1.0,6.0,6,0.00,CLR,OVC,0.00,WeatherDisplay:10.37,2013-01-21 20:50:00,
2013-01-21 16:00:00,59.6,-7.9,29.91,West,265,3.0,5.0,6,0.00,CLR,OVC,0.00,WeatherDisplay:10.37,2013-01-21 21:00:00,
2013-01-21 16:05:00,59.4,-8.1,29.88,West,270,0.0,3.0,6,0.00,CLR,OVC,0.00,WeatherDisplay:10.37,2013-01-21 21:05:00,
2013-01-21 16:10:00,59.1,-8.2,29.88,West,276,1.0,6.0,6,0.00,CLR,OVC,0.00,WeatherDisplay:10.37,2013-01-21 21:10:00,
2013-01-21 16:20:00,58.6,-8.7,29.91,West,263,1.0,5.0,6,0.00,CLR,OVC,0.00,WeatherDisplay:10.37,2013-01-21 21:20:00,
2013-01-21 16:25:00,58.3,-8.9,29.91,West,268,3.0,7.0,6,0.00,CLR,OVC,0.00,WeatherDisplay:10.37,2013-01-21 21:25:00,
2013-01-21 16:30:00,58.1,-9.0,29.91,WSW,257,0.0,7.0,6,0.00,CLR,OVC,0.00,WeatherDisplay:10.37,2013-01-21 21:30:00,
2013-01-21 16:35:00,57.9,-9.1,29.91,WSW,248,0.0,4.0,6,0.00,CLR,OVC,0.00,WeatherDisplay:10.37,2013-01-21 21:35:00,
2013-01-21 16:40:00,57.6,-9.4,29.91,WSW,258,0.0,5.0,6,0.00,CLR,OVC,0.00,WeatherDisplay:10.37,2013-01-21 21:40:00,
2013-01-21 16:45:00,57.4,-9.6,29.91,West,276,0.0,4.0,6,0.00,CLR,OVC,0.00,WeatherDisplay:10.37,2013-01-21 21:45:00,
2013-01-21 16:50:00,57.0,-9.8,29.91,West,267,0.0,0.0,6,0.00,CLR,OVC,0.00,WeatherDisplay:10.37,2013-01-21 21:50:00,
2013-01-21 17:00:00,56.5,-10.2,29.91,WNW,285,0.0,0.0,6,0.00,CLR,OVC,0.00,WeatherDisplay:10.37,2013-01-21 22:00:00,
2013-01-21 17:05:00,56.1,-10.5,29.91,WSW,257,0.0,5.0,6,0.00,CLR,OVC,0.00,WeatherDisplay:10.37,2013-01-21 22:05:00,
2013-01-21 17:10:00,55.8,-0.1,29.91,West,265,0.0,0.0,10,0.00,CLR,OVC,0.00,WeatherDisplay:10.37,2013-01-21 22:10:00,
2013-01-21 17:15:00,55.6,-0.2,29.91,West,266,0.0,0.0,10,0.00,CLR,OVC,0.00,WeatherDisplay:10.37,2013-01-21 22:15:00,
2013-01-21 17:20:00,55.2,-0.5,29.91,West,260,0.0,0.0,10,0.00,CLR,OVC,0.00,WeatherDisplay:10.37,2013-01-21 22:20:00,
2013-01-21 17:25:00,54.7,-0.9,29.91,West,269,0.0,0.0,10,0.00,CLR,OVC,0.00,WeatherDisplay:10.37,2013-01-21 22:25:00,
2013-01-21 17:30:00,54.2,0.7,29.91,West,270,0.0,0.0,11,0.00,CLR,OVC,0.00,WeatherDisplay:10.37,2013-01-21 22:30:00,
2013-01-21 17:35:00,53.7,2.2,29.91,West,269,0.0,0.0,12,0.00,CLR,OVC,0.00,WeatherDisplay:10.37,2013-01-21 22:35:00,
2013-01-21 17:40:00,53.2,1.8,29.91,West,270,0.0,0.0,12,0.00,CLR,OVC,0.00,WeatherDisplay:10.37,2013-01-21 22:40:00,
2013-01-21 17:45:00,52.7,1.4,29.91,West,270,0.0,0.0,12,0.00,CLR,OVC,0.00,WeatherDisplay:10.37,2013-01-21 22:45:00,
2013-01-21 17:50:00,52.3,1.1,29.91,West,270,0.0,0.0,12,0.00,CLR,OVC,0.00,WeatherDisplay:10.37,2013-01-21 22:50:00,
2013-01-21 17:55:00,52.0,0.8,29.91,West,270,0.0,0.0,12,0.00,CLR,OVC,0.00,WeatherDisplay:10.37,2013-01-21 22:55:00,
2013-01-21 18:00:00,51.6,0.6,29.91,West,270,0.0,0.0,12,0.00,CLR,OVC,0.00,WeatherDisplay:10.37,2013-01-21 23:00:00,
2013-01-21 18:05:00,51.3,0.3,29.91,West,270,0.0,0.0,12,0.00,CLR,OVC,0.00,WeatherDisplay:10.37,2013-01-21 23:05:00,
2013-01-21 18:10:00,50.9,6.2,29.91,West,270,0.0,0.0,16,0.00,CLR,OVC,0.00,WeatherDisplay:10.37,2013-01-21 23:10:00,
2013-01-21 18:15:00,50.7,6.1,29.91,West,270,0.0,0.0,16,0.00,CLR,OVC,0.00,WeatherDisplay:10.37,2013-01-21 23:15:00,
2013-01-21 18:20:00,50.4,5.8,29.91,West,270,0.0,0.0,16,0.00,CLR,OVC,0.00,WeatherDisplay:10.37,2013-01-21 23:20:00,
2013-01-21 18:25:00,50.2,5.6,29.91,West,270,0.0,0.0,16,0.00,CLR,OVC,0.00,WeatherDisplay:10.37,2013-01-21 23:25:00,
2013-01-21 18:30:00,49.8,10.3,29.91,West,270,0.0,0.0,20,0.00,CLR,OVC,0.00,WeatherDisplay:10.37,2013-01-21 23:30:00,
2013-01-21 18:35:00,49.6,10.1,29.91,West,270,0.0,0.0,20,0.00,CLR,OVC,0.00,WeatherDisplay:10.37,2013-01-21 23:35:00,
2013-01-21 18:40:00,49.3,9.8,29.91,West,270,0.0,0.0,20,0.00,CLR,OVC,0.00,WeatherDisplay:10.37,2013-01-21 23:40:00,
2013-01-21 18:45:00,48.9,10.6,29.91,West,270,0.0,0.0,21,0.00,CLR,OVC,0.00,WeatherDisplay:10.37,2013-01-21 23:45:00,
2013-01-21 18:50:00,48.6,12.4,29.91,West,270,0.0,0.0,23,0.00,CLR,OVC,0.00,WeatherDisplay:10.37,2013-01-21 23:50:00,
2013-01-21 18:55:00,48.2,13.0,29.91,West,270,0.0,0.0,24,0.00,CLR,OVC,0.00,WeatherDisplay:10.37,2013-01-21 23:55:00,
2013-01-21 19:00:00,47.9,12.8,29.91,West,270,0.0,0.0,24,0.00,CLR,OVC,0.00,WeatherDisplay:10.37,2013-01-22 00:00:00,
2013-01-21 19:05:00,47.6,12.6,29.91,West,270,0.0,0.0,24,0.00,CLR,OVC,0.00,WeatherDisplay:10.37,2013-01-22 00:05:00,
2013-01-21 19:10:00,47.3,12.2,29.91,West,270,0.0,0.0,24,0.00,CLR,OVC,0.00,WeatherDisplay:10.37,2013-01-22 00:10:00,
2013-01-21 19:15:00,46.9,12.9,29.91,West,270,0.0,0.0,25,0.00,CLR,OVC,0.00,WeatherDisplay:10.37,2013-01-22 00:15:00,
2013-01-21 19:20:00,46.9,12.9,29.91,West,270,0.0,0.0,25,0.00,CLR,OVC,0.00,WeatherDisplay:10.37,2013-01-22 00:20:00,
2013-01-21 19:25:00,46.2,12.3,29.91,West,270,0.0,0.0,25,0.00,CLR,OVC,0.00,WeatherDisplay:10.37,2013-01-22 00:25:00,
2013-01-21 19:35:00,45.9,12.0,29.94,NNW,331,0.0,5.0,25,0.00,CLR,OVC,0.00,WeatherDisplay:10.37,2013-01-22 00:35:00,
2013-01-21 19:40:00,45.9,12.0,29.94,NNW,336,2.0,10.0,25,0.00,CLR,OVC,0.00,WeatherDisplay:10.37,2013-01-22 00:40:00,
2013-01-21 19:45:00,46.2,12.2,29.94,NW,314,3.0,9.0,25,0.00,CLR,OVC,0.00,WeatherDisplay:10.37,2013-01-22 00:45:00,
2013-01-21 19:50:00,46.6,12.6,29.94,NW,313,3.0,9.0,25,0.00,CLR,OVC,0.00,WeatherDisplay:10.37,2013-01-22 00:50:00,
2013-01-21 19:55:00,47.2,12.2,29.94,NW,317,3.0,7.0,24,0.00,CLR,OVC,0.00,WeatherDisplay:10.37,2013-01-22 00:55:00,
2013-01-21 20:00:00,47.5,12.5,29.94,WNW,303,2.0,7.0,24,0.00,CLR,OVC,0.00,WeatherDisplay:10.37,2013-01-22 01:00:00,
2013-01-21 20:05:00,47.7,11.6,29.94,WNW,299,0.0,5.0,23,0.00,CLR,OVC,0.00,WeatherDisplay:10.37,2013-01-22 01:05:00,
2013-01-21 20:10:00,47.7,11.6,29.94,NW,307,0.0,5.0,23,0.00,CLR,OVC,0.00,WeatherDisplay:10.37,2013-01-22 01:10:00,
2013-01-21 20:15:00,47.5,10.5,29.94,WNW,302,2.0,8.0,22,0.00,CLR,OVC,0.00,WeatherDisplay:10.37,2013-01-22 01:15:00,
2013-01-21 20:20:00,47.3,8.2,29.97,NW,307,3.0,9.0,20,0.00,CLR,OVC,0.00,WeatherDisplay:10.37,2013-01-22 01:20:00,
2013-01-21 20:25:00,47.3,8.2,29.97,NW,318,0.0,7.0,20,0.00,CLR,OVC,0.00,WeatherDisplay:10.37,2013-01-22 01:25:00,
2013-01-21 20:30:00,47.3,3.3,29.97,NW,324,1.0,7.0,16,0.00,CLR,OVC,0.00,WeatherDisplay:10.37,2013-01-22 01:30:00,
2013-01-21 20:35:00,47.1,3.1,29.97,NW,319,0.0,0.0,16,0.00,CLR,OVC,0.00,WeatherDisplay:10.37,2013-01-22 01:35:00,
2013-01-21 20:40:00,46.9,4.3,29.97,NW,319,0.0,8.0,17,0.00,CLR,OVC,0.00,WeatherDisplay:10.37,2013-01-22 01:40:00,
2013-01-21 20:50:00,46.6,4.0,29.97,WNW,291,2.0,8.0,17,0.00,CLR,OVC,0.00,WeatherDisplay:10.37,2013-01-22 01:50:00,
2013-01-21 21:00:00,46.7,-1.7,29.97,NW,305,5.0,15.0,13,0.00,CLR,OVC,0.00,WeatherDisplay:10.37,2013-01-22 02:00:00,
2013-01-21 21:05:00,46.6,-1.7,29.97,WNW,303,2.0,11.0,13,0.00,CLR,OVC,0.00,WeatherDisplay:10.37,2013-01-22 02:05:00,
2013-01-21 21:10:00,46.4,-1.9,29.97,West,277,0.0,12.0,13,0.00,CLR,OVC,0.00,WeatherDisplay:10.37,2013-01-22 02:10:00,
2013-01-21 21:20:00,46.0,-2.2,29.97,WNW,298,6.0,12.0,13,0.00,CLR,OVC,0.00,WeatherDisplay:10.37,2013-01-22 02:20:00,
2013-01-21 21:25:00,46.0,-7.6,29.97,WNW,295,3.0,13.0,10,0.00,CLR,OVC,0.00,WeatherDisplay:10.37,2013-01-22 02:25:00,
2013-01-21 21:30:00,46.0,-7.6,29.97,West,280,2.0,8.0,10,0.00,CLR,OVC,0.00,WeatherDisplay:10.37,2013-01-22 02:30:00,
2013-01-21 21:40:00,45.7,-7.9,29.97,WSW,252,5.0,7.0,10,0.00,CLR,OVC,0.00,WeatherDisplay:10.37,2013-01-22 02:40:00,
2013-01-21 21:45:00,45.5,-8.1,29.97,West,279,3.0,9.0,10,0.00,CLR,OVC,0.00,WeatherDisplay:10.37,2013-01-22 02:45:00,
2013-01-21 21:50:00,45.5,-8.1,29.97,WNW,286,2.0,9.0,10,0.00,CLR,OVC,0.00,WeatherDisplay:10.37,2013-01-22 02:50:00,
2013-01-21 22:00:00,45.0,-8.5,29.97,WNW,298,6.0,13.0,10,0.00,CLR,OVC,0.00,WeatherDisplay:10.37,2013-01-22 03:00:00,
2013-01-21 22:05:00,45.1,-8.3,29.97,WNW,301,1.0,8.0,10,0.00,CLR,OVC,0.00,WeatherDisplay:10.37,2013-01-22 03:05:00,
2013-01-21 22:10:00,45.1,-8.3,29.97,WNW,301,5.0,9.0,10,0.00,CLR,OVC,0.00,WeatherDisplay:10.37,2013-01-22 03:10:00,
2013-01-21 22:20:00,45.1,-8.3,29.97,WNW,290,2.0,10.0,10,0.00,CLR,OVC,0.00,WeatherDisplay:10.37,2013-01-22 03:20:00,
2013-01-21 22:30:00,45.0,-8.5,29.97,West,276,2.0,7.0,10,0.00,CLR,OVC,0.00,WeatherDisplay:10.37,2013-01-22 03:30:00,
2013-01-21 22:35:00,44.6,-8.8,29.97,WNW,291,1.0,8.0,10,0.00,CLR,OVC,0.00,WeatherDisplay:10.37,2013-01-22 03:35:00,
2013-01-21 22:40:00,44.6,-8.8,29.97,WNW,302,1.0,7.0,10,0.00,CLR,OVC,0.00,WeatherDisplay:10.37,2013-01-22 03:40:00,
2013-01-21 22:45:00,44.4,-8.9,29.97,WNW,302,5.0,8.0,10,0.00,CLR,OVC,0.00,WeatherDisplay:10.37,2013-01-22 03:45:00,
2013-01-21 22:50:00,44.4,-8.9,29.97,WNW,302,3.0,10.0,10,0.00,CLR,OVC,0.00,WeatherDisplay:10.37,2013-01-22 03:50:00,
2013-01-21 22:55:00,44.2,-9.0,29.97,WNW,301,2.0,7.0,10,0.00,CLR,OVC,0.00,WeatherDisplay:10.37,2013-01-22 03:55:00,
2013-01-21 23:00:00,44.2,-9.0,29.97,WNW,284,5.0,7.0,10,0.00,CLR,OVC,0.00,WeatherDisplay:10.37,2013-01-22 04:00:00,
2013-01-21 23:05:00,44.2,-9.0,29.97,WNW,303,3.0,6.0,10,0.00,CLR,OVC,0.00,WeatherDisplay:10.37,2013-01-22 04:05:00,
2013-01-21 23:10:00,44.2,-9.1,29.97,WNW,292,0.0,5.0,10,0.00,CLR,OVC,0.00,WeatherDisplay:10.37,2013-01-22 04:10:00,
2013-01-21 23:15:00,44.1,-9.2,29.97,West,265,0.0,0.0,10,0.00,CLR,OVC,0.00,WeatherDisplay:10.37,2013-01-22 04:15:00,
2013-01-21 23:20:00,43.7,-9.5,29.97,WSW,238,1.0,5.0,10,0.00,CLR,OVC,0.00,WeatherDisplay:10.37,2013-01-22 04:20:00,
2013-01-21 23:30:00,43.2,-6.1,29.97,NW,306,2.0,5.0,12,0.00,CLR,OVC,0.00,WeatherDisplay:10.37,2013-01-22 04:30:00,
2013-01-21 23:35:00,43.0,-6.3,29.97,WNW,299,0.0,5.0,12,0.00,CLR,OVC,0.00,WeatherDisplay:10.37,2013-01-22 04:35:00,
2013-01-21 23:40:00,42.8,-6.4,29.97,WNW,294,0.0,7.0,12,0.00,CLR,OVC,0.00,WeatherDisplay:10.37,2013-01-22 04:40:00,
2013-01-21 23:45:00,42.6,-6.6,29.97,WNW,294,2.0,7.0,12,0.00,CLR,OVC,0.00,WeatherDisplay:10.37,2013-01-22 04:45:00,
2013-01-21 23:50:00,42.6,-6.6,29.97,NW,308,0.0,7.0,12,0.00,CLR,OVC,0.00,WeatherDisplay:10.37,2013-01-22 04:50:00,
2013-01-21 23:55:00,42.6,-6.6,29.97,West,268,1.0,5.0,12,0.00,CLR,OVC,0.00,WeatherDisplay:10.37,2013-01-22 04:55:00,